Weather History for KLBF - September, 2013

Change the Weather History Date:

Sunday, September 15, 2013

  Actual Average Record
Temperature  
Mean Temperature 63 °F 63 °F  
Max Temperature 67 °F 78 °F 97 °F (1955)
Min Temperature 58 °F 47 °F 32 °F (1903)
Degree Days  
Heating Degree Days 2 5  
Month to date heating degree days 6 44  
Since 1 July heating degree days 19 64  
Cooling Degree Days 0 2  
Month to date cooling degree days 140 53  
Year to date cooling degree days 977 748  
Growing Degree Days 12 (Base 50)    
Moisture  
Dew Point 57 °F    
Average Humidity 76    
Maximum Humidity 93    
Minimum Humidity 58    
Precipitation  
Precipitation 2.82 in 0.04 in 2.82 in (2013)
Month to date precipitation 3.68 0.70  
Year to date precipitation 18.04 16.92  
Snow  
Snow 0.00 in 0.00 in 0.00 in (2002)
Month to date snowfall 0.0 0.0  
Since 1 July snowfall 0.0 0.0  
Since 1 September snowfall 0.0 0.0  
Snow Depth 0.00 in    
Sea Level Pressure  
Sea Level Pressure 30.06 in    
Wind  
Wind Speed 12 mph (NE)    
Max Wind Speed 23 mph    
Max Gust Speed 29 mph    
Visibility 8 miles    
Events Rain , Thunderstorm    
T = Trace of Precipitation, MM = Missing Value Source: NWS Daily Summary

Daily Weather History Graph

Daily Weather History Graph

Search for Another Location

Airport or City:

Trip Planner

Search our weather history database for the weather conditions in past years. The results will help you decide how hot, cold, wet, or windy it might be!

Date:

Astronomy

Sep. 15, 2013 Rise Set
Actual Time 7:23 AM CDT 7:51 PM CDT
Civil Twilight 6:55 AM CDT 8:18 PM CDT
Nautical Twilight 6:23 AM CDT 8:51 PM CDT
Astronomical Twilight 5:49 AM CDT 9:24 PM CDT
Moon 5:21 PM CDT (9/15) 3:01 AM CDT (9/15)
Length of Visible Light 13h 23m
Length of Day
12h 27m
Waxing Gibbous, 82% of the Moon is Illuminated
Sep 15
Waxing Gibbous
Sep 19
Full
Sep 26
Last Quarter
Oct 4
New
Oct 11
First Quarter

Hourly Weather History & Observations

Time (CDT) Temp. Dew Point Humidity Pressure Visibility Wind Dir Wind Speed Gust Speed Precip Events Conditions
12:53 AM 64.0 °F 61.0 °F 90% 29.86 in 10.0 mi SSE 3.5 mph - N/A   Clear
1:53 AM 63.0 °F 61.0 °F 93% 29.87 in 8.0 mi SE 6.9 mph - N/A   Scattered Clouds
2:46 AM 64.4 °F 62.6 °F 94% 29.96 in 9.0 mi Calm Calm - N/A Thunderstorm Mostly Cloudy
2:53 AM 64.0 °F 61.0 °F 90% 29.89 in 9.0 mi Calm Calm - N/A Thunderstorm Mostly Cloudy
3:01 AM 64.4 °F 62.6 °F 94% 29.96 in 10.0 mi Calm Calm - N/A   Mostly Cloudy
3:34 AM 64.4 °F 62.6 °F 94% 29.97 in 1.8 mi NNW 10.4 mph - 0.08 in Rain Heavy Rain
3:45 AM 62.6 °F 60.8 °F 94% 29.98 in 2.0 mi North 8.1 mph - 0.27 in Rain , Thunderstorm Heavy Thunderstorms and Rain
3:48 AM 62.6 °F 60.8 °F 94% 29.98 in 1.8 mi North 12.7 mph 18.4 mph 0.33 in Rain , Thunderstorm Heavy Thunderstorms and Rain
3:53 AM 62.1 °F 61.0 °F 96% 29.93 in 1.2 mi North 15.0 mph 23.0 mph 0.48 in Rain , Thunderstorm Heavy Thunderstorms and Rain
4:05 AM 62.6 °F 60.8 °F 94% 29.99 in 0.8 mi NE 20.7 mph 26.5 mph 0.63 in Rain , Thunderstorm Heavy Thunderstorms and Rain
4:31 AM 60.8 °F 60.8 °F 100% 30.00 in 1.2 mi NNE 13.8 mph - 1.87 in Rain Heavy Rain
4:33 AM 60.8 °F 60.8 °F 100% 30.00 in 1.5 mi NNE 12.7 mph - 1.94 in Rain Heavy Rain
4:42 AM 62.6 °F 60.8 °F 94% 30.00 in 3.0 mi North 13.8 mph - 2.12 in Rain , Thunderstorm Rain
4:50 AM 62.6 °F 60.8 °F 94% 29.99 in 2.5 mi NNE 15.0 mph - 2.17 in Rain , Thunderstorm Heavy Rain
4:53 AM 62.1 °F 60.1 °F 93% 29.93 in 2.5 mi NNE 15.0 mph - 2.20 in Rain , Thunderstorm Heavy Rain
5:00 AM 62.6 °F 60.8 °F 94% 29.99 in 2.5 mi NNE 15.0 mph - 0.08 in Rain Heavy Rain
5:09 AM 62.6 °F 60.8 °F 94% 29.99 in 4.0 mi NNE 15.0 mph - 0.11 in Rain Rain
5:53 AM 62.1 °F 60.1 °F 93% 29.92 in 10.0 mi NNE 16.1 mph 21.9 mph 0.14 in Rain Light Rain
6:38 AM 62.6 °F 59.0 °F 88% 30.01 in 10.0 mi NNE 18.4 mph 28.8 mph 0.00 in   Mostly Cloudy
6:53 AM 62.1 °F 57.9 °F 86% 29.95 in 10.0 mi NNE 19.6 mph 26.5 mph 0.00 in   Overcast
7:05 AM 60.8 °F 57.2 °F 88% 30.01 in 10.0 mi NNE 18.4 mph 27.6 mph N/A   Overcast
7:17 AM 60.8 °F 57.2 °F 88% 30.02 in 10.0 mi NNE 17.3 mph 26.5 mph N/A   Overcast
7:53 AM 60.1 °F 57.0 °F 90% 29.99 in 10.0 mi NNE 15.0 mph 28.8 mph N/A   Overcast
8:02 AM 60.8 °F 55.4 °F 82% 30.05 in 10.0 mi NNE 16.1 mph 25.3 mph N/A   Overcast
8:53 AM 59.0 °F 55.9 °F 90% 30.04 in 10.0 mi NNE 13.8 mph 19.6 mph N/A   Overcast
9:53 AM 59.0 °F 54.0 °F 83% 30.09 in 10.0 mi NE 16.1 mph 26.5 mph N/A   Overcast
10:00 AM 59.0 °F 53.6 °F 82% 30.14 in 10.0 mi NNE 18.4 mph 25.3 mph N/A   Overcast
10:53 AM 59.0 °F 53.1 °F 81% 30.13 in 10.0 mi NE 15.0 mph 20.7 mph N/A   Overcast
11:53 AM 59.0 °F 53.1 °F 81% 30.15 in 10.0 mi NE 15.0 mph 21.9 mph N/A   Overcast
12:53 PM 64.0 °F 53.1 °F 67% 30.15 in 10.0 mi NE 15.0 mph 20.7 mph N/A   Mostly Cloudy
1:53 PM 63.0 °F 53.1 °F 70% 30.16 in 10.0 mi NE 11.5 mph - N/A   Overcast
2:53 PM 64.0 °F 52.0 °F 65% 30.16 in 10.0 mi NE 10.4 mph 20.7 mph N/A   Mostly Cloudy
3:13 PM 64.4 °F 51.8 °F 64% 30.21 in 10.0 mi ENE 10.4 mph - N/A   Scattered Clouds
3:53 PM 64.9 °F 53.1 °F 65% 30.17 in 10.0 mi NE 9.2 mph - N/A   Mostly Cloudy
4:53 PM 66.0 °F 52.0 °F 60% 30.17 in 10.0 mi ENE 13.8 mph - N/A   Mostly Cloudy
5:53 PM 64.9 °F 52.0 °F 63% 30.17 in 10.0 mi NE 11.5 mph - N/A   Scattered Clouds
6:53 PM 64.0 °F 52.0 °F 65% 30.19 in 10.0 mi NE 10.4 mph - N/A   Overcast
7:53 PM 63.0 °F 53.1 °F 70% 30.20 in 10.0 mi NE 5.8 mph - N/A   Mostly Cloudy
8:53 PM 62.1 °F 53.1 °F 72% 30.22 in 10.0 mi NE 9.2 mph - N/A   Scattered Clouds
9:53 PM 60.1 °F 52.0 °F 75% 30.24 in 10.0 mi NE 9.2 mph - N/A   Clear
10:53 PM 59.0 °F 52.0 °F 78% 30.26 in 10.0 mi ENE 9.2 mph - N/A   Overcast
11:53 PM 57.9 °F 53.1 °F 84% 30.26 in 10.0 mi East 8.1 mph - N/A   Overcast